This demonstration page uses our WeatherBlox Daily Observations layout. Learn more.

Left ArrowRight Arrow

Hourly Observations for November 15, 2015

Temp ( °F °C ) Dew Point ( °F °C ) Humidity (%) Winds ( mph kmh ) Pressure ( in mb ) Visibility ( mi km ) Precip ( " mm )
12:53 am 00:53 Clear 31 -0.6 27 -2.8 85 85 Calm 30.39 1029 10 16 0.00 0.00
1:53 am 01:53 Clear 30 -1.1 26 -3.3 85 85 Calm 30.39 1029 10 16 0.00 0.00
2:53 am 02:53 Clear 30 -1.1 26 -3.3 85 85 Calm 30.39 1029 10 16 0.00 0.00
3:53 am 03:53 Clear 30 -1.1 27 -2.8 88 88 Calm 30.39 1029 10 16 0.00 0.00
4:53 am 04:53 Clear 30 -1.1 26 -3.3 85 85 Calm 30.40 1029 10 16 0.00 0.00
5:53 am 05:53 Clear 28 -2.2 26 -3.3 92 92 Calm 30.41 1030 10 16 0.00 0.00
6:53 am 06:53 Clear 28 -2.2 26 -3.3 92 92 Calm 30.43 1030 10 16 0.00 0.00
7:53 am 07:53 Sunny 29 -1.7 27 -2.8 92 92 Calm 30.44 1031 10 16 0.00 0.00
8:53 am 08:53 Sunny 42 5.6 34 1.1 73 73 Calm 30.44 1031 10 16 0.00 0.00
9:53 am 09:53 Sunny 50 10 32 0 50 50 Calm 30.44 1031 10 16 0.00 0.00
10:53 am 10:53 Sunny 56 13.3 32 0 40 40 VRB 7 11 30.42 1030 10 16 0.00 0.00
11:53 am 11:53 Sunny 60 15.6 33 0.6 36 36 W 9 15 30.40 1030 10 16 0.00 0.00
12:53 pm 12:53 Sunny 63 17.2 34 1.1 34 34 SW 7 11 30.37 1029 10 16 0.00 0.00
1:53 pm 13:53 Sunny 66 18.9 34 1.1 30 30 SW 8 13 30.35 1028 10 16 0.00 0.00
2:53 pm 14:53 Sunny 67 19.4 34 1.1 30 30 WSW 6 9 30.33 1027 10 16 0.00 0.00
3:53 pm 15:53 Sunny 67 19.4 32 0 27 27 VRB 3 6 30.32 1027 10 16 0.00 0.00
4:53 pm 16:53 Sunny 63 17.2 32 0 31 31 S 5 7 30.32 1027 10 16 0.00 0.00
5:53 pm 17:53 Clear 49 9.4 34 1.1 56 56 SSW 3 6 30.32 1027 10 16 0.00 0.00
6:53 pm 18:53 Clear 44 6.7 34 1.1 68 68 Calm 30.33 1027 10 16 0.00 0.00
7:53 pm 19:53 Clear 40 4.4 33 0.6 77 77 Calm 30.33 1027 10 16 0.00 0.00
8:53 pm 20:53 Clear 36 2.2 31 -0.6 82 82 Calm 30.33 1027 10 16 0.00 0.00
9:53 pm 21:53 Clear 36 2.2 32 0 86 86 E 3 6 30.32 1027 10 16 0.00 0.00
10:53 pm 22:53 Clear 33 0.6 30 -1.1 89 89 Calm 30.32 1027 10 16 0.00 0.00
11:53 pm 23:53 Clear 32 0 29 -1.7 88 88 Calm 30.32 1027 10 16 0.00 0.00

Powered by AerisWeather